User: anonymous   Login
Location: Martin Dies, Jr. State Park
(30.8429°N, 94.1720°W)
Time: 09:29:41
(UTC-06:00)
Language:

ISS - Orbit

View from above orbital plane
View from above orbital plane
View from above satellite
View from above satellite

Ground track
Ground track

The orbit data is extracted from the following two-line orbital elements,

1 25544U 98067A   19350.50858993  .00016717  00000-0  10270-3 0  9068
2 25544  51.6382 177.4369 0007538  39.2886 320.8810 15.50130234  3530
Epoch (UTC): 16 December 2019 12:12:22
Eccentricity: 0.0007538
inclination: 51.6382°
perigee height: 411 km
apogee height: 421 km
right ascension of ascending node: 177.4369°
argument of perigee: 39.2886°
revolutions per day: 15.50130234
mean anomaly at epoch: 320.8810°
orbit number at epoch: 353

The dashed part of the orbit path shows where the satellite is in the earth's shadow,  

DLR